Date String (YYYY-MM-DD hh:mm:ss) UTC,Instrument flags,Ambient pressure (hPa),Sample flow (lpm),Bypass flow (lpm),Sample temperature (°C),Ambient temperature (°C),ASC tube jacket temperature (°C),LED temperature (°C),Box temperature (°C),Sample RH (%),Span deviation,Mass concentration (μg/m³),Mass concentration (μg/m³),Mass concentration (μg/m³)
DateTimeUTC,F1_M11,P_M11,Q1_M11,Q2_M11,T1_M11,T2_M11,T3_M11,T4_M11,T5_M11,U1_M11,ZSPAN_M11,X2_M11,X0_M11,X1_M11
2021-11-05 08:00:00,,0823.8,5.00,0.00,29.2,28.3,00.0,38.2,30.9,09.8,0000.0,0000.94,0001.38,0000.81
2021-11-05 08:01:00,,0823.7,5.00,0.00,29.2,28.3,00.0,38.2,30.9,09.6,0000.0,0000.95,0001.41,0000.81
2021-11-05 08:02:00,,0823.8,5.00,0.00,29.2,28.3,00.0,38.3,30.9,09.5,0000.0,0000.95,0001.41,0000.80
2021-11-05 08:03:00,,0823.8,5.00,0.00,29.2,28.3,00.0,38.3,31.0,09.5,0000.0,0000.93,0001.39,0000.80
2021-11-05 08:04:00,,0823.7,5.00,0.00,29.2,28.3,00.0,38.3,30.9,09.6,0000.0,0000.92,0001.39,0000.79
2021-11-05 08:05:00,,0823.7,5.00,0.00,29.2,28.3,00.0,38.3,30.9,09.5,0000.0,0000.90,0001.35,0000.78
2021-11-05 08:06:00,,0823.8,4.99,0.00,29.2,28.3,00.0,38.3,30.9,09.5,0000.0,0000.88,0001.31,0000.76
2021-11-05 08:07:00,,0823.8,5.00,0.00,29.2,28.3,00.0,38.3,31.0,09.6,0000.0,0000.85,0001.26,0000.75
2021-11-05 08:08:00,,0823.9,5.00,0.00,29.2,28.3,00.0,38.3,31.0,09.6,0000.0,0000.84,0001.26,0000.74
2021-11-05 08:09:00,,0823.8,5.01,0.00,29.2,28.3,00.0,38.3,31.0,09.7,0000.0,0000.85,0001.26,0000.74
2021-11-05 08:10:00,,0823.9,5.00,0.00,29.2,28.3,00.0,38.3,31.0,09.6,0000.0,0000.85,0001.20,0000.73
2021-11-05 08:11:00,,0824.0,5.00,0.00,29.2,28.3,00.0,38.3,31.0,09.7,0000.0,0000.85,0001.20,0000.72
2021-11-05 08:12:00,,0824.0,5.01,0.00,29.2,28.3,00.0,38.3,31.0,09.8,0000.0,0000.83,0001.22,0000.72
2021-11-05 08:13:00,,0824.0,5.01,0.00,29.2,28.4,00.0,38.3,31.0,10.0,0000.0,0000.83,0001.21,0000.71
2021-11-05 08:14:00,,0824.0,5.00,0.00,29.2,28.4,00.0,38.3,31.0,10.4,0000.0,0000.87,0001.30,0000.72
2021-11-05 08:15:00,,0824.0,5.02,0.00,29.2,28.4,00.0,38.3,31.0,10.2,0000.0,0000.90,0001.33,0000.73
2021-11-05 08:16:00,,0824.0,5.00,0.00,29.2,28.4,00.0,38.3,31.0,10.0,0000.0,0000.90,0001.30,0000.74
2021-11-05 08:17:00,,0824.1,5.00,0.00,29.2,28.3,00.0,38.3,31.0,09.9,0000.0,0000.90,0001.30,0000.75
2021-11-05 08:18:00,,0824.2,4.99,0.00,29.2,28.3,00.0,38.3,31.0,10.8,0000.0,0000.94,0001.35,0000.79
2021-11-05 08:19:00,,0824.2,5.02,0.00,29.2,28.3,00.0,38.3,30.9,11.0,0000.0,0001.02,0001.49,0000.85
2021-11-05 08:20:00,,0824.1,5.00,0.00,29.1,28.3,00.0,38.3,30.9,10.8,0000.0,0001.10,0002.22,0000.92
2021-11-05 08:21:00,,0824.1,5.00,0.00,29.1,28.2,00.0,38.3,30.8,10.5,0000.0,0001.18,0002.43,0000.98
2021-11-05 08:22:00,,0824.2,4.99,0.00,29.1,28.2,00.0,38.2,30.8,10.7,0000.0,0001.23,0002.48,0001.02
2021-11-05 08:23:00,,0824.3,5.01,0.00,29.1,28.2,00.0,38.2,30.8,10.6,0000.0,0001.32,0002.71,0001.08
2021-11-05 08:24:00,,0824.2,4.99,0.00,29.1,28.2,00.0,38.2,30.7,10.5,0000.0,0001.37,0002.76,0001.12
2021-11-05 08:25:00,,0824.3,5.00,0.00,29.1,28.2,00.0,38.2,30.8,10.3,0000.0,0001.37,0002.79,0001.15
2021-11-05 08:26:00,,0824.4,5.00,0.00,29.1,28.2,00.0,38.2,30.8,10.2,0000.0,0001.35,0002.77,0001.16
2021-11-05 08:27:00,,0824.5,5.01,0.00,29.1,28.2,00.0,38.2,30.8,10.2,0000.0,0001.38,0002.86,0001.18
2021-11-05 08:28:00,,0824.2,4.99,0.00,29.0,28.2,00.0,38.2,30.8,10.2,0000.0,0001.41,0003.00,0001.19
2021-11-05 08:29:00,,0824.2,5.00,0.00,29.0,28.1,00.0,38.2,30.8,10.1,0000.0,0001.43,0003.04,0001.18
2021-11-05 08:30:00,,0824.2,4.99,0.00,29.0,28.1,00.0,38.2,30.7,10.1,0000.0,0001.36,0002.93,0001.13
2021-11-05 08:31:00,,0824.3,5.01,0.00,29.0,28.1,00.0,38.1,30.7,10.0,0000.0,0001.26,0002.13,0001.06
2021-11-05 08:32:00,,0824.2,4.99,0.00,29.0,28.0,00.0,38.1,30.7,09.9,0000.0,0001.19,0001.89,0001.01
2021-11-05 08:33:00,,0824.1,5.00,0.00,28.9,28.0,00.0,38.1,30.6,09.4,0000.0,0001.12,0001.77,0000.97
2021-11-05 08:34:00,,0824.2,4.99,0.00,28.9,28.0,00.0,38.1,30.6,09.5,0000.0,0001.04,0001.55,0000.92
2021-11-05 08:35:00,,0824.2,5.01,0.00,28.9,28.0,00.0,38.1,30.6,10.0,0000.0,0001.03,0001.55,0000.89
2021-11-05 08:36:00,,0824.1,4.98,0.00,28.9,27.9,00.0,38.1,30.6,10.0,0000.0,0000.99,0001.43,0000.87
2021-11-05 08:37:00,,0824.1,5.02,0.00,28.8,27.9,00.0,38.1,30.6,09.7,0000.0,0000.97,0001.39,0000.85
2021-11-05 08:38:00,,0824.2,5.00,0.00,28.8,27.9,00.0,38.0,30.5,09.8,0000.0,0000.94,0001.28,0000.83
2021-11-05 08:39:00,,0824.1,4.99,0.00,28.8,27.9,00.0,38.0,30.5,09.6,0000.0,0000.92,0001.24,0000.82
2021-11-05 08:40:00,,0824.0,4.99,0.00,28.8,27.9,00.0,38.0,30.5,09.5,0000.0,0000.91,0001.30,0000.80
2021-11-05 08:41:00,,0824.1,5.00,0.00,28.8,27.9,00.0,38.0,30.5,09.5,0000.0,0000.90,0001.31,0000.77
2021-11-05 08:42:00,,0824.1,5.01,0.00,28.8,27.9,00.0,38.0,30.5,09.6,0000.0,0000.90,0001.32,0000.77
2021-11-05 08:43:00,,0824.2,5.00,0.00,28.7,27.9,00.0,38.0,30.4,09.7,0000.0,0000.90,0001.35,0000.76
2021-11-05 08:44:00,,0824.2,5.00,0.00,28.7,27.8,00.0,37.9,30.5,09.7,0000.0,0000.92,0001.41,0000.76
2021-11-05 08:45:00,,0824.1,5.00,0.00,28.7,27.8,00.0,37.9,30.5,09.6,0000.0,0000.93,0001.45,0000.75
2021-11-05 08:46:00,,0824.1,5.00,0.00,28.7,27.8,00.0,37.9,30.5,09.7,0000.0,0000.91,0001.40,0000.74
2021-11-05 08:47:00,,0824.1,5.01,0.00,28.7,27.8,00.0,37.9,30.4,09.7,0000.0,0000.91,0001.42,0000.74
2021-11-05 08:48:00,,0824.2,5.00,0.00,28.7,27.8,00.0,37.9,30.4,09.6,0000.0,0000.93,0002.18,0000.73
2021-11-05 08:49:00,,0824.2,5.00,0.00,28.7,27.8,00.0,37.9,30.5,09.7,0000.0,0000.96,0003.65,0000.73
2021-11-05 08:50:00,,0824.1,5.00,0.00,28.7,27.8,00.0,37.9,30.4,09.6,0000.0,0000.94,0003.59,0000.73
2021-11-05 08:51:00,,0824.2,5.00,0.00,28.7,27.9,00.0,37.9,30.4,09.3,0000.0,0000.90,0003.44,0000.72
2021-11-05 08:52:00,,0824.2,5.00,0.00,28.7,27.9,00.0,37.9,30.5,09.6,0000.0,0000.90,0003.41,0000.72
2021-11-05 08:53:00,,0824.2,5.00,0.00,28.7,27.9,00.0,37.9,30.5,09.6,0000.0,0000.93,0003.47,0000.73
2021-11-05 08:54:00,,0824.2,5.00,0.00,28.7,27.9,00.0,37.9,30.5,09.5,0000.0,0000.92,0003.47,0000.72
2021-11-05 08:55:00,,0824.1,5.00,0.00,28.7,27.9,00.0,37.8,30.5,09.4,0000.0,0000.90,0003.51,0000.72
2021-11-05 08:56:00,,0824.1,4.99,0.00,28.7,27.9,00.0,37.8,30.5,09.5,0000.0,0000.92,0004.14,0000.74
2021-11-05 08:57:00,,0824.1,5.00,0.00,28.7,27.9,00.0,37.8,30.4,09.3,0000.0,0000.93,0004.15,0000.74
2021-11-05 08:58:00,,0824.1,5.00,0.00,28.7,27.9,00.0,37.8,30.5,09.4,0000.0,0000.93,0004.74,0000.73
2021-11-05 08:59:00,,0824.1,4.98,0.00,28.7,27.9,00.0,37.8,30.5,09.4,0000.0,0000.94,0004.13,0000.73
